Bartlesville, OK

8:27 AM CST on December 17, 2017 (GMT -0600)
Bartlesville Municipal

Weather History for KBVO - November, 2012

Change the Weather History Date:

Monday, November 5, 2012

  Actual Average Record
Temperature  
Mean Temperature 48 °F -  
Max Temperature 57 °F 63 °F 82 °F (1948)
Min Temperature 35 °F 39 °F 17 °F (1982)
Degree Days  
Heating Degree Days 17    
Moisture  
Dew Point 39 °F    
Average Humidity 66    
Maximum Humidity 96    
Minimum Humidity 51    
Precipitation  
Precipitation 0.00 in - - ()
Sea Level Pressure  
Sea Level Pressure 30.08 in    
Wind  
Wind Speed 4 mph (NNW)    
Max Wind Speed 10 mph    
Max Gust Speed 18 mph    
Visibility 10 miles    
Events      
Averages and records for this station are not official NWS values.
T = Trace of Precipitation, MM = Missing Value Source: NWS Daily Summary

Daily Weather History Graph

Daily Weather History Graph

Search for Another Location

Airport or City:

Trip Planner

Search our weather history database for the weather conditions in past years. The results will help you decide how hot, cold, wet, or windy it might be!

Date:

Astronomy

Nov. 05, 2012 Rise Set
Actual Time 6:52 AM CST 5:22 PM CST
Civil Twilight 6:25 AM CST 5:49 PM CST
Nautical Twilight 5:54 AM CST 6:20 PM CST
Astronomical Twilight 5:24 AM CST 6:50 PM CST
Moon 11:00 PM CST (11/5) 12:12 PM CST (11/5)
Length of Visible Light 11h 24m
Length of Day
10h 30m
Waning Gibbous, 62% of the Moon is Illuminated
Nov 5
Waning Gibbous
Nov 6
Last Quarter
Nov 13
New
Nov 20
First Quarter
Nov 28
Full

Hourly Weather History & Observations

Time (CST) Temp. Dew Point Humidity Pressure Visibility Wind Dir Wind Speed Gust Speed Precip Events Conditions
12:53 AM 48.9 °F 43.0 °F 80% 30.06 in 10.0 mi Calm Calm - N/A   Overcast
1:53 AM 50.0 °F 42.1 °F 74% 30.04 in 10.0 mi SW 4.6 mph - N/A   Overcast
2:53 AM 46.9 °F 39.9 °F 77% 30.01 in 10.0 mi Calm Calm - N/A   Clear
3:53 AM 53.1 °F 41.0 °F 64% 30.01 in 10.0 mi WSW 9.2 mph - N/A   Overcast
4:53 AM 55.0 °F 37.9 °F 53% 30.01 in 10.0 mi Variable 3.5 mph - N/A   Overcast
6:53 AM 51.1 °F 39.0 °F 63% 30.04 in 10.0 mi Calm Calm - N/A   Clear
7:53 AM 54.0 °F 41.0 °F 62% 30.05 in 10.0 mi Variable 3.5 mph - N/A   Clear
8:53 AM 55.9 °F 42.1 °F 60% 30.07 in 10.0 mi Variable 5.8 mph - N/A   Clear
9:53 AM 57.0 °F 41.0 °F 55% 30.07 in 10.0 mi NNW 8.1 mph - N/A   Clear
10:53 AM 57.0 °F 41.0 °F 55% 30.10 in 10.0 mi Variable 6.9 mph - N/A   Partly Cloudy
11:53 AM 55.0 °F 39.9 °F 57% 30.11 in 10.0 mi North 10.4 mph 18.4 mph N/A   Scattered Clouds
12:53 PM 55.0 °F 39.0 °F 55% 30.09 in 10.0 mi Variable 4.6 mph 17.3 mph N/A   Overcast
1:53 PM 55.9 °F 37.9 °F 51% 30.07 in 10.0 mi Variable 6.9 mph - N/A   Overcast
2:53 PM 55.0 °F 37.9 °F 53% 30.08 in 10.0 mi Variable 6.9 mph - N/A   Mostly Cloudy
3:53 PM 54.0 °F 37.9 °F 55% 30.09 in 10.0 mi Variable 3.5 mph - N/A   Overcast
4:53 PM 53.1 °F 37.9 °F 57% 30.09 in 10.0 mi Variable 4.6 mph - N/A   Overcast
5:53 PM 52.0 °F 37.9 °F 59% 30.12 in 10.0 mi North 5.8 mph - N/A   Overcast
6:53 PM 50.0 °F 39.0 °F 66% 30.12 in 10.0 mi North 3.5 mph - N/A   Overcast
7:53 PM 46.9 °F 37.9 °F 71% 30.12 in 10.0 mi North 8.1 mph - N/A   Mostly Cloudy
8:53 PM 41.0 °F 36.0 °F 82% 30.14 in 10.0 mi Calm Calm - N/A   Clear
9:53 PM 42.1 °F 37.9 °F 85% 30.14 in 10.0 mi Calm Calm - N/A   Clear
10:53 PM 39.9 °F 37.0 °F 89% 30.13 in 10.0 mi Calm Calm - N/A   Clear
11:53 PM 35.1 °F 34.0 °F 96% 30.14 in 10.0 mi Calm Calm - N/A   Partly Cloudy